www.pogodaiklimat.ru

Погода и климат >> Архив погоды >> Бразилия >> Мараньян >> Туриасу


ПОГОДА в Туриасу

  • Прогноз погоды в Туриасу
  • Монитор погоды в Туриасу

АРХИВ ПОГОДЫ в Туриасу

Время (UTC), дата Ветер
(напр.,м/с)
 
Видим.   Явления Облачность Т
(С)
Тd
(С)
f
(%)
Тe
(С)
Тes
(С)
Комфортность P
(гПа)
Po
(гПа)
Тmin
(С)
Tmax
(С)
R
(мм)
R24
(мм)
S
(см)
01 15.03 В 1
{2}
н/о н/о +25.9 +24.5 92 +36 +36 очень
душно
1011.0 1006.9
02 15.03 В 1
{2}
н/о н/о +25.7 +24.3 92 +36 +36 очень
душно
1011.2 1007.1
03 15.03 В 1
{2}
н/о н/о +25.6 +24.5 94 +36 +36 очень
душно
1010.5 1006.4
04 15.03 штиль 0
{1}
н/о н/о +25.3 +24.4 95 +35 +35 очень
душно
1009.6 1005.5
05 15.03 СВ 1
{1}
н/о н/о +25.2 +24.4 95 +35 +35 очень
душно
1009.1 1005.0
06 15.03 В 1
{1}
н/о н/о +25.5 +24.8 96 +36 +36 очень
душно
1009.0 1004.9
07 15.03 СВ 2
{6}
н/о н/о +23.8 +23.1 96 +32 +32 очень
душно
1009.8 1005.6 5
08 15.03 Ю 1
{4}
н/о н/о +23.7 +23.0 96 +31 +31 очень
душно
1009.2 1005.0 3
09 15.03 Ю 1
{1}
н/о н/о +23.9 +23.3 96 +32 +32 очень
душно
1009.9 1005.7
10 15.03 Ю 1
{2}
н/о н/о +23.8 +23.2 96 +32 +32 очень
душно
1011.0 1006.8
11 15.03 В 1
{4}
н/о н/о +24.1 +23.4 96 +32 +32 очень
душно
1012.2 1008.0
12 15.03 ЮВ 1
{4}
н/о н/о +24.0 +23.2 95 +32 +32 очень
душно
1012.8 1008.6 1
13 15.03 З 1
{2}
н/о н/о +24.2 +23.4 95 +32 +32 очень
душно
1012.6 1008.4 0.2
14 15.03 СЗ 1
{2}
н/о н/о +25.2 +23.9 93 +35 +35 очень
душно
1012.7 1008.5
15 15.03 штиль 0
{2}
н/о н/о +25.3 +21.5 79 +32 +32 очень
душно
1011.2 1007.1
16 15.03 С 1
{1}
н/о н/о +26.9 +22.1 75 +35 +35 очень
душно
1009.7 1005.6
17 15.03 С 2
{3}
н/о н/о +28.4 +22.3 70 +37 +37 очень
душно
1008.2 1004.1
18 15.03 СВ 2
{4}
н/о н/о +28.8 +23.7 74 +39 +39 очень
душно
1007.6 1003.5
19 15.03 СВ 3
{5}
н/о н/о +28.7 +24.0 76 +40 +40 очень
душно
1007.3 1003.2
20 15.03 СВ 3
{5}
н/о н/о +28.2 +24.2 79 +39 +39 очень
душно
1007.4 1003.3
21 15.03 С 1
{5}
н/о н/о +27.3 +24.3 84 +38 +38 очень
душно
1008.0 1003.9
22 15.03 СВ 1
{3}
н/о н/о +26.5 +24.1 87 +37 +37 очень
душно
1008.8 1004.7
23 15.03 СВ 1
{2}
н/о н/о +26.3 +24.3 89 +37 +37 очень
душно
1009.4 1005.3
00 16.03 штиль 0
{1}
н/о н/о +26.1 +24.5 91 +37 +37 очень
душно
1010.2 1006.1
01 16.03 В 1
{2}
н/о н/о +26.2 +24.6 91 +37 +37 очень
душно
1011.1 1007.0
02 16.03 СВ 1
{2}
н/о н/о +25.8 +24.8 94 +37 +37 очень
душно
1010.6 1006.5
03 16.03 СВ 1
{2}
н/о н/о +26.0 +25.0 94 +37 +37 очень
душно
1010.2 1006.1
04 16.03 СВ 1
{3}
н/о н/о +26.1 +24.5 91 +37 +37 очень
душно
1009.8 1005.7
05 16.03 СВ 2
{3}
н/о н/о +26.1 +23.9 88 +36 +36 очень
душно
1009.3 1005.2
06 16.03 С 1
{3}
н/о н/о +25.7 +24.4 93 +36 +36 очень
душно
1008.6 1004.5
07 16.03 СВ 2
{3}
н/о н/о +25.7 +24.4 93 +36 +36 очень
душно
1008.4 1004.3
08 16.03 С 1
{3}
н/о н/о +25.5 +24.0 91 +35 +35 очень
душно
1008.6 1004.5
09 16.03 С 1
{2}
н/о н/о +25.3 +24.1 93 +35 +35 очень
душно
1009.5 1005.4 0.2
10 16.03 СЗ 1
{2}
н/о н/о +25.5 +24.0 91 +35 +35 очень
душно
1010.6 1006.5
11 16.03 С 1
{2}
н/о н/о +26.4 +25.0 92 +38 +38 очень
душно
1011.4 1007.3 1
12 16.03 С 1
{2}
н/о н/о +27.2 +24.6 86 +39 +39 очень
душно
1012.1 1008.0
13 16.03 СЗ 2
{4}
н/о н/о +27.4 +24.0 82 +38 +38 очень
душно
1011.4 1007.3
14 16.03 С 1
{3}
н/о н/о +28.2 +23.5 76 +38 +38 очень
душно
1011.3 1007.2
15 16.03 С 1
{3}
н/о н/о +29.0 +23.9 74 +40 +40 очень
душно
1010.8 1006.7
16 16.03 СВ 2
{4}
н/о н/о +30.5 +23.6 67 +42 +42 опасность
перегрева
1009.5 1005.4
17 16.03 С 2
{5}
н/о н/о +29.4 +23.8 72 +40 +40 очень
душно
1008.5 1004.4
18 16.03 С 3
{5}
н/о н/о +30.2 +23.8 69 +42 +42 опасность
перегрева
1007.5 1003.4
19 16.03 С 2
{6}
н/о н/о +29.7 +23.7 70 +41 +41 опасность
перегрева
1007.3 1003.2
20 16.03 С 2
{5}
н/о н/о +28.0 +23.7 77 +38 +38 очень
душно
1007.7 1003.6
21 16.03 С 1
{4}
н/о н/о +27.4 +23.9 81 +38 +38 очень
душно
1008.6 1004.5
22 16.03 СВ 1
{2}
н/о н/о +26.8 +24.0 85 +37 +37 очень
душно
1009.1 1005.0
23 16.03 С 1
{2}
н/о н/о +26.4 +24.2 88 +37 +37 очень
душно
1009.7 1005.6
01 17.03 С 2
{2}
н/о н/о +26.0 +24.2 90 +36 +36 очень
душно
1011.3 1007.2
02 17.03 С 1
{2}
н/о н/о +25.9 +24.0 89 +36 +36 очень
душно
1011.2 1007.1
03 17.03 С 1
{3}
н/о н/о +25.5 +24.2 93 +35 +35 очень
душно
1011.1 1007.0 0.8
04 17.03 З 1
{3}
н/о н/о +25.4 +24.6 95 +36 +36 очень
душно
1010.1 1006.0 2
05 17.03 С 3
{6}
н/о н/о +24.2 +23.7 97 +33 +33 очень
душно
1010.2 1006.0 26
06 17.03 штиль 0
{6}
н/о н/о +24.3 +23.8 97 +33 +33 очень
душно
1009.8 1005.6 4
07 17.03 ЮЗ 1
{1}
н/о н/о +24.3 +23.8 97 +33 +33 очень
душно
1009.1 1005.0
08 17.03 штиль 0
{1}
н/о н/о +24.2 +23.7 97 +33 +33 очень
душно
1009.5 1005.3
09 17.03 ЮЗ 1
{1}
н/о н/о +24.3 +23.8 97 +33 +33 очень
душно
1010.0 1005.8
10 17.03 ЮЗ 1
{1}
н/о н/о +24.6 +24.1 97 +34 +34 очень
душно
1010.7 1006.5
11 17.03 З 1
{1}
н/о н/о +25.1 +24.6 97 +35 +35 очень
душно
1011.4 1007.3
12 17.03 С 1
{2}
н/о н/о +25.7 +24.2 91 +36 +36 очень
душно
1012.2 1008.1
13 17.03 С 1
{3}
н/о н/о +27.0 +23.0 79 +36 +36 очень
душно
1012.2 1008.1 0.2
14 17.03
{4}
н/о н/о +27.2 +22.5 76 1012.2 1008.1
15 17.03 СВ 2
{3}
н/о н/о +27.9 +23.0 75 +37 +37 очень
душно
1011.3 1007.2
16 17.03 СВ 2
{5}
н/о н/о +29.1 +22.8 69 +39 +39 очень
душно
1010.1 1006.0
17 17.03 СВ 2
{5}
н/о н/о +26.3 +24.3 89 +37 +37 очень
душно
1008.9 1004.8
18 17.03 С 1
{4}
н/о н/о +26.9 +24.4 86 +38 +38 очень
душно
1008.3 1004.2
19 17.03 СВ 2
{3}
н/о н/о +27.0 +23.6 82 +37 +37 очень
душно
1008.0 1003.9
20 17.03 СВ 2
{3}
н/о н/о +26.9 +24.0 84 +37 +37 очень
душно
1008.4 1004.3
21 17.03 С 1
{4}
н/о н/о +25.7 +24.2 91 +36 +36 очень
душно
1009.1 1005.0 0.8
22 17.03 З 1
{2}
н/о н/о +25.4 +24.4 94 +35 +35 очень
душно
1009.7 1005.6
23 17.03 З 1
{1}
н/о н/о +25.1 +24.3 95 +35 +35 очень
душно
1010.4 1006.3 0.2
00 18.03 З 1
{1}
н/о н/о +25.1 +24.3 95 +35 +35 очень
душно
1011.7 1007.6
01 18.03 З 1
{1}
н/о н/о +25.0 +24.2 95 +34 +34 очень
душно
1012.2 1008.0 0.2
02 18.03 З 1
{2}
н/о н/о +24.8 +24.2 96 +34 +34 очень
душно
1011.9 1007.7
03 18.03 З 1
{1}
н/о н/о +24.6 +24.0 96 +34 +34 очень
душно
1011.5 1007.3
04 18.03 З 1
{1}
н/о н/о +24.3 +23.8 97 +33 +33 очень
душно
1010.2 1006.0
05 18.03 С 1
{1}
н/о н/о +24.2 +23.6 96 +33 +33 очень
душно
1009.6 1005.4
06 18.03 штиль 0
{1}
н/о н/о +23.9 +23.4 97 +32 +32 очень
душно
1009.1 1004.9
07 18.03 ЮЗ 1
{2}
н/о н/о +23.7 +23.2 97 +32 +32 очень
душно
1009.4 1005.2
08 18.03 З 1
{2}
н/о н/о +23.6 +23.1 97 +31 +31 очень
душно
1009.4 1005.2
09 18.03 штиль 0
{1}
н/о н/о +23.4 +22.9 97 +33 +33 очень
душно
1009.9 1005.7
10 18.03 З 1
{1}
н/о н/о +24.0 +23.5 97 +32 +32 очень
душно
1010.6 1006.4
11 18.03 штиль 0
{2}
н/о н/о +25.1 +24.5 96 +35 +35 очень
душно
1011.3 1007.2
12 18.03 СВ 1
{2}
н/о н/о +27.3 +23.8 81 +37 +37 очень
душно
1012.2 1008.1
13 18.03 СВ 2
{3}
н/о н/о +27.1 +23.1 79 +36 +36 очень
душно
1012.4 1008.3
14 18.03 СВ 2
{4}
н/о н/о +28.8 +23.1 71 +39 +39 очень
душно
1011.8 1007.7
15 18.03 СВ 3
{5}
н/о н/о +29.6 +24.1 72 +41 +41 опасность
перегрева
1010.8 1006.7 0.2
16 18.03 СВ 2
{5}
н/о н/о +27.9 +25.1 85 +40 +40 очень
душно
1010.0 1005.9 2
17 18.03 С 2
{4}
н/о н/о +27.9 +24.4 81 +39 +39 очень
душно
1008.4 1004.3 0.6
18 18.03 ЮЗ 2
{5}
н/о н/о +25.6 +24.2 92 +35 +35 очень
душно
1008.8 1004.7
19 18.03 штиль 0
{6}
н/о н/о +24.3 +23.9 98 +33 +33 очень
душно
1008.5 1004.4 49
20 18.03 В 1
{3}
н/о н/о +24.7 +24.3 98 +34 +34 очень
душно
1008.7 1004.6 7
21 18.03 СЗ 1
{1}
н/о н/о +25.0 +24.5 97 +35 +35 очень
душно
1008.7 1004.6
22 18.03 С 1
{2}
н/о н/о +25.3 +24.8 97 +36 +36 очень
душно
1009.8 1005.7 0.6
23 18.03 С 1
{2}
н/о н/о +25.2 +24.6 96 +35 +35 очень
душно
1010.8 1006.7
00 19.03 СВ 1
{2}
н/о н/о +25.5 +24.7 95 +36 +36 очень
душно
1011.2 1007.1
01 19.03 СВ 1
{2}
н/о н/о +25.5 +24.4 94 +36 +36 очень
душно
1011.8 1007.7
02 19.03 З 1
{2}
н/о н/о +25.0 +24.0 94 +34 +34 очень
душно
1011.7 1007.5
03 19.03 ЮЗ 1
{1}
н/о н/о +24.7 +23.9 95 +34 +34 очень
душно
1011.3 1007.1
04 19.03 ЮЗ 1
{2}
н/о н/о +24.5 +23.9 96 +33 +33 очень
душно
1010.7 1006.5
05 19.03 ЮЗ 1
{2}
н/о н/о +24.1 +23.6 97 +33 +33 очень
душно
1009.8 1005.6
06 19.03 ЮЗ 1
{2}
н/о н/о +23.9 +23.4 97 +32 +32 очень
душно
1009.4 1005.2
07 19.03 штиль 0
{1}
н/о н/о +23.7 +23.2 97 +32 +32 очень
душно
1008.5 1004.3
08 19.03 штиль 0
{1}
н/о н/о +23.8 +23.3 97 +32 +32 очень
душно
1008.1 1003.9
09 19.03 С 1
{1}
н/о н/о +24.0 +23.5 97 +32 +32 очень
душно
1008.4 1004.2
10 19.03 С 1
{2}
н/о н/о +24.6 +24.1 97 +34 +34 очень
душно
1008.7 1004.6
11 19.03 СВ 2
{3}
н/о н/о +25.9 +25.1 95 +37 +37 очень
душно
1009.7 1005.6
12 19.03 СВ 3
{5}
н/о н/о +26.8 +23.0 80 +36 +36 очень
душно
1010.9 1006.8
13 19.03 СВ 3
{5}
н/о н/о +28.2 +23.1 74 +38 +38 очень
душно
1011.3 1007.2
14 19.03 СВ 3
{5}
н/о н/о +29.1 +23.5 72 +40 +40 очень
душно
1011.0 1006.9
15 19.03 СВ 3
{5}
н/о н/о +30.6 +24.3 69 +43 +43 опасность
перегрева
1009.9 1005.8
16 19.03 СВ 3
{6}
н/о н/о +27.5 +26.5 94 +42 +42 опасность
перегрева
1008.8 1004.7 2
17 19.03 СВ 3
{6}
н/о н/о +27.9 +23.7 78 +38 +38 очень
душно
1007.8 1003.7
18 19.03 СВ 2
{6}
н/о н/о +27.4 +24.6 85 +39 +39 очень
душно
1007.1 1003.0 0.2
19 19.03 СВ 2
{5}
н/о н/о +27.9 +23.6 77 +38 +38 очень
душно
1007.0 1002.9
20 19.03 СВ 2
{5}
н/о н/о +27.8 +24.3 81 +39 +39 очень
душно
1007.2 1003.1
21 19.03 С 2
{7}
н/о н/о +25.4 +24.7 96 +36 +36 очень
душно
1007.7 1003.6 2
22 19.03 СВ 1
{3}
н/о н/о +25.6 +24.9 96 +36 +36 очень
душно
1008.3 1004.2
23 19.03 СВ 2
{3}
н/о н/о +25.9 +24.8 94 +37 +37 очень
душно
1009.2 1005.1
00 20.03 СВ 1
{2}
н/о н/о +25.7 +24.6 94 +36 +36 очень
душно
1010.0 1005.9
01 20.03 В 1
{3}
н/о н/о +25.0 +23.9 94 +34 +34 очень
душно
1010.0 1005.9
02 20.03 СВ 2
{3}
н/о н/о +25.4 +24.6 95 +36 +36 очень
душно
1010.5 1006.4 0.2
03 20.03 В 1
{3}
н/о н/о +25.5 +24.6 95 +36 +36 очень
душно
1009.9 1005.8
04 20.03 Ю 1
{2}
н/о н/о +25.5 +24.7 95 +36 +36 очень
душно
1009.1 1005.0
05 20.03 штиль 0
{2}
н/о н/о +24.8 +24.0 95 +34 +34 очень
душно
1008.5 1004.4 0.4
06 20.03 штиль 0
{1}
н/о н/о +24.7 +24.1 96 +34 +34 очень
душно
1007.9 1003.8 0.6
07 20.03 штиль 0
{2}
н/о н/о +24.7 +24.1 96 +34 +34 очень
душно
1008.0 1003.9
08 20.03 З 1
{1}
н/о н/о +24.7 +24.1 96 +34 +34 очень
душно
1008.2 1004.1 0.4
09 20.03 штиль 0
{1}
н/о н/о +24.5 +23.9 96 +33 +33 очень
душно
1008.2 1004.1
10 20.03 штиль 0
{1}
н/о н/о +24.9 +24.3 96 +34 +34 очень
душно
1008.8 1004.7
11 20.03 С 1
{2}
н/о н/о +26.7 +24.8 89 +38 +38 очень
душно
1009.5 1005.4
12 20.03 СВ 2
{4}
н/о н/о +27.3 +23.5 80 +37 +37 очень
душно
1010.3 1006.2
13 20.03 СВ 3
{5}
н/о н/о +28.6 +23.6 74 +39 +39 очень
душно
1010.6 1006.5
14 20.03 СВ 2
{6}
н/о н/о +29.4 +24.7 76 +42 +42 опасность
перегрева
1010.6 1006.5
15 20.03 СВ 3
{6}
н/о н/о +30.5 +24.4 70 +43 +43 опасность
перегрева
1009.6 1005.5 0.2
16 20.03 СВ 3
{5}
н/о н/о +30.7 +24.3 69 +43 +43 опасность
перегрева
1008.6 1004.5
17 20.03 СВ 3
{6}
н/о н/о +29.4 +24.9 77 +42 +42 опасность
перегрева
1007.3 1003.2
18 20.03 СВ 3
{6}
н/о н/о +28.6 +24.6 79 +41 +41 опасность
перегрева
1006.8 1002.7
19 20.03 СВ 3
{5}
н/о н/о +28.0 +24.4 81 +39 +39 очень
душно
1006.5 1002.4
20 20.03 СВ 3
{6}
н/о н/о +27.9 +24.3 81 +39 +39 очень
душно
1007.2 1003.1
21 20.03 СВ 2
{6}
н/о н/о +27.3 +24.1 83 +38 +38 очень
душно
1007.7 1003.6
22 20.03 С 2
{4}
н/о н/о +26.6 +25.1 91 +38 +38 очень
душно
1008.0 1003.9
23 20.03 С 1
{4}
н/о н/о +26.3 +24.7 91 +37 +37 очень
душно
1009.2 1005.1
00 21.03 С 1
{2}
н/о н/о +26.3 +24.8 91 +37 +37 очень
душно
1010.0 1005.9
01 21.03 СЗ 1
{4}
н/о н/о +25.8 +24.8 94 +37 +37 очень
душно
1010.7 1006.6 0.2
02 21.03 С 1
{4}
н/о н/о +25.9 +25.1 95 +37 +37 очень
душно
1011.1 1007.0 8
03 21.03 СВ 2
{5}
н/о н/о +24.5 +23.9 96 +33 +33 очень
душно
1010.9 1006.7 17
04 21.03 С 1
{3}
н/о н/о +24.5 +24.0 97 +34 +34 очень
душно
1010.3 1006.1 5
05 21.03 штиль 0
{2}
н/о н/о +24.8 +24.3 97 +34 +34 очень
душно
1009.5 1005.4 3
06 21.03 штиль 0
{1}
н/о н/о +24.7 +24.2 97 +34 +34 очень
душно
1009.2 1005.1 3
07 21.03 ЮВ 1
{2}
н/о н/о +24.5 +23.9 96 +33 +33 очень
душно
1009.5 1005.4 6
08 21.03 В 1
{2}
н/о н/о +24.3 +23.8 97 +33 +33 очень
душно
1010.0 1005.8 5
09 21.03 СВ 1
{2}
н/о н/о +23.7 +23.2 97 +32 +32 очень
душно
1009.9 1005.7 4
10 21.03 С 1
{2}
н/о н/о +23.6 +23.2 98 +32 +32 очень
душно
1010.2 1006.0 2
11 21.03 З 1
{1}
н/о н/о +24.2 +23.7 97 +33 +33 очень
душно
1011.1 1006.9
12 21.03 СЗ 1
{1}
н/о н/о +25.6 +24.7 95 +36 +36 очень
душно
1012.0 1007.9
13 21.03 СЗ 1
{3}
н/о н/о +26.1 +21.6 76 +33 +33 очень
душно
1012.3 1008.2
14 21.03 СЗ 1
{2}
н/о н/о +26.8 +20.8 70 +34 +34 очень
душно
1011.2 1007.1 0.2
16 21.03 В 1
{2}
н/о н/о +28.6 +22.8 71 +38 +38 очень
душно
1009.7 1005.6
18 21.03 СВ 2
{4}
н/о н/о +28.2 +23.9 78 +39 +39 очень
душно
1007.6 1003.5
20 21.03 С 2
{4}
н/о н/о +26.3 +25.2 94 +38 +38 очень
душно
1007.6 1003.5 0.2
01 22.03 В 1
{2}
н/о н/о +25.8 +24.9 95 +37 +37 очень
душно
1011.4 1007.3

 

Местоположение метеостанции Туриасу (Мараньян, Бразилия): широта -1.67 долгота -45.37 высота над уровнем моря 43 м.

В архиве по умолчанию представлена погода в Туриасу за последнюю неделю. Архивные данные за месяц целиком и за предыдущие месяцы, начиная с января 2011 года, Вы можете получить, выбрав интересующий диапазон дат из раскрывающегося списка и нажав кнопку "Ввод!".


*Определитесь, кто Вы:
робот инопланетянин человек

Внимание! Время в таблицах - всемирное. Для получения местного времени необходимо прибавить поправку, которая равна -3 ч.

Смотрите также архив погоды в соседних городах и на ближайших метеорологических станциях:

Погода в Туриасу (Мараньян, Бразилия) (6 км)
Погода в Сан-Луисе (Мараньян, Бразилия) (160 км)
Погода в Сан-Луисе (Мараньян, Бразилия) (164 км)
Погода в Брагансе (Пара, Бразилия) (171 км)
Погода в Тракуатеуа (Пара, Бразилия) (185 км)
Погода в Капитан-Посу (Пара, Бразилия) (188 км)
Погода в Сантане (Амапа, Бразилия) (206 км)
Погода на Прегуике (Мараньян, Бразилия) (212 км)
Погода в Салинополисе (Пара, Бразилия) (249 км)
Погода в Салинополисе (Пара, Бразилия) (252 км)

Пояснения к столбцам:

Ветер - указаны скорость ветра в м/с - средняя за 10 мин, порывы в срок и между сроками (в фигурных скобках) и направление, откуда дует ветер: С - северный, СВ - северо-восточный, В - восточный, ЮВ - юго-восточный, Ю - южный, ЮЗ - юго-западный, З - западный, СЗ - северо-западный.
Видимость - горизонтальная дальность видимости в метрах или километрах. При видимости от 1 до 10 км при отсутствии осадков обычно наблюдается дымка, при ухудшении видимости до 1 км и менее - туман. В сухую погоду видимость может ухудшаться дымом, пылью или мглою.
Явления - указаны атмосферные явления, наблюдавшиеся в срок или в последний час перед сроком; фигурными скобками обозначены явления, наблюдавшиеся между сроками (за 1-3 часа до срока); квадратными скобками обозначены град или гололедные отложения с указанием их диаметра в мм.
Облачность - указаны через наклонную черту общая и нижняя облачность в баллах и высота нижней границы облаков в метрах; квадратными скобками обозначены формы облаков: Ci - перистые, Cs - перисто-слоистые, Cc - перисто-кучевые, Ac - высококучевые, As - высокослоистые, Sc - слоисто-кучевые, Ns - слоисто-дождевые, Cu - кучевые, Cb - кучево-дождевые. Подробнее классификацию облаков см. в Атласе облаков (PDF).
T - Температура воздуха - температура, измеренная на высоте 2 м над землей.
Td - Температура точки росы - температура, при понижении до которой содержащийся в воздухе водяной пар достигнет насыщения.
f - Относительная влажность воздуха - влажноcть воздуха, измеренная на высоте 2 м над землей.
Te - Эффективная температура - температура, которую ощущает одетый по сезону человек в тени. Характеристика душности погоды. При расчете учитывается влияние влажности воздуха и скорости ветра на теплоощущения человека.
Tes - Эффективная температура на солнце - температура, которую ощущает человек, с поправкой на солнечный нагрев. Характеристика знойности погоды. Зависит от высоты солнца над горизонтом, облачности и скорости ветра. Ночью, в пасмурную погоду, а также при ветре 12 м/с и более поправка равна нулю.
P - Атмосферное давление - приведенное к уровню моря атмосферное давление.
Po - Атмосферное давление - измеренное на уровне метеостанции атмосферное давление.
Tmin - Минимальная температура - минимум температуры воздуха на высоте 2 м над землей.
Tmax - Максимальная температура - максимум температуры воздуха на высоте 2 м над землей.
R - Количество осадков - Количество выпавших осадков за период времени, мм. При наведении курсора мыши на число - период времени, за который выпало указанное количество осадков.
R24 - Количество осадков - Количество выпавших осадков за 24 часа, мм.
S - Снежный покров - Высота снежного покрова, см. При наведении курсора мыши на число - состояние снежного покрова и степень покрытия местности в баллах.